KN4CCE-13 Weather Reports


time (UTC)temp
C
wind
direction
speed
KPH
gust
KPH
rain 1hr
cm
rain 24hr
cm
rain mn
cm
humidity
%
barometer
mb
20190418165144 25 302 3.2 6.4 0.00 0.00 0.00 50 1017.1
20190418164642 25 279 6.4 16.1 0.00 0.00 0.00 50 1017.1
20190418164140 25 158 4.8 11.3 0.00 0.00 0.00 49 1017.0
20190418163638 25 115 3.2 4.8 0.00 0.00 0.00 51 1017.0
20190418163136 25 306 3.2 8.0 0.00 0.00 0.00 52 1017.1
20190418162634 25 350 3.2 6.4 0.00 0.00 0.00 56 1017.4
20190418162132 25 317 3.2 12.9 0.00 0.00 0.00 53 1017.3
20190418161630 24 174 6.4 16.1 0.00 0.00 0.00 55 1017.4
20190418161128 24 171 4.8 11.3 0.00 0.00 0.00 56 1017.4
20190418160626 23 93 3.2 11.3 0.00 0.00 0.00 59 1017.4
20190418160124 23 161 3.2 8.0 0.00 0.00 0.00 59 1017.4
20190418155622 24 101 1.6 8.0 0.00 0.00 0.00 64 1017.5
20190418155120 23 94 3.2 14.5 0.00 0.00 0.00 62 1017.6
20190418154618 23 325 3.2 4.8 0.00 0.00 0.00 62 1017.7
20190418154116 23 339 3.2 4.8 0.00 0.00 0.00 63 1017.8
20190418153614 23 306 3.2 4.8 0.00 0.00 0.00 61 1017.7
20190418153112 23 136 3.2 14.5 0.00 0.00 0.00 64 1017.9
20190418152610 23 110 3.2 6.4 0.00 0.00 0.00 67 1017.9
20190418152108 23 320 3.2 11.3 0.00 0.00 0.00 64 1018.0
20190418151606 23 76 3.2 6.4 0.00 0.00 0.00 67 1018.0
20190418151104 23 135 1.6 4.8 0.00 0.00 0.00 64 1018.1
20190418150603 22 300 1.6 4.8 0.00 0.00 0.00 69 1018.1
20190418150100 22 150 3.2 16.1 0.00 0.00 0.00 68 1018.2
20190418145558 22 123 1.6 4.8 0.00 0.00 0.00 67 1018.2
20190418145056 22 313 1.6 4.8 0.00 0.00 0.00 66 1018.3
20190418144554 22 108 3.2 6.4 0.00 0.00 0.00 67 1018.4
20190418144052 22 312 3.2 8.0 0.00 0.00 0.00 67 1018.4
20190418143550 22 302 3.2 6.4 0.00 0.00 0.00 67 1018.3
20190418143049 22 338 1.6 3.2 0.00 0.00 0.00 69 1018.2
20190418142546 21 304 1.6 4.8 0.00 0.00 0.00 68 1018.0
20190418142044 21 360 1.6 4.8 0.00 0.00 0.00 69 1018.0
20190418141542 21 11 1.6 3.2 0.00 0.00 0.00 70 1018.0
20190418141040 20 43 1.6 6.4 0.00 0.00 0.00 68 1018.0
20190418140538 20 147 3.2 6.4 0.00 0.00 0.00 69 1018.0
20190418140036 20 281 1.6 4.8 0.00 0.00 0.00 72 1018.1
20190418135534 20 278 1.6 6.4 0.00 0.00 0.00 74 1018.1
20190418135032 19 326 3.2 6.4 0.00 0.00 0.00 73 1018.1
20190418134530 18 319 1.6 6.4 0.00 0.00 0.00 74 1018.0
20190418134028 18 270 1.6 4.8 0.00 0.00 0.00 74 1018.0
20190418133526 18 270 1.6 4.8 0.00 0.00 0.00 74 1017.9
20190418133024 18 266 1.6 3.2 0.00 0.00 0.00 74 1017.8
20190418132522 18 310 1.6 3.2 0.00 0.00 0.00 74 1017.6
20190418132020 18 307 1.6 3.2 0.00 0.00 0.00 74 1017.7
20190418131518 18 307 1.6 4.8 0.00 0.00 0.00 74 1017.6
20190418131016 18 115 1.6 4.8 0.00 0.00 0.00 75 1017.5
20190418130514 18 119 1.6 4.8 0.00 0.00 0.00 74 1017.5
20190418130012 18 360 0.0 3.2 0.00 0.00 0.00 75 1017.5
20190418125510 17 360 0.0 3.2 0.00 0.00 0.00 78 1017.6
20190418124756 17 360 0.0 1.6 0.00 0.00 0.00 76 1017.5
20190418124254 17 338 1.6 4.8 0.00 0.00 0.00 76 1017.5
20190418123752 17 340 1.6 4.8 0.00 0.00 0.00 76 1017.5
20190418123250 17 355 1.6 4.8 0.00 0.00 0.00 77 1017.5
20190418122748 17 360 0.0 1.6 0.00 0.00 0.00 78 1017.6
20190418122246 17 360 0.0 0.0 0.00 0.00 0.00 78 1017.6
20190418121744 17 360 0.0 0.0 0.00 0.00 0.00 78 1017.5
20190418121243 16 360 0.0 0.0 0.00 0.00 0.00 79 1017.4
20190418120740 16 360 0.0 0.0 0.00 0.00 0.00 80 1017.3
20190418120238 16 360 0.0 0.0 0.00 0.00 0.00 80 1017.2
20190418115736 16 360 0.0 4.8 0.00 0.00 0.00 80 1017.2
20190418115234 16 360 0.0 0.0 0.00 0.00 0.00 80 1017.1
20190418114731 16 360 0.0 3.2 0.00 0.00 0.00 80 1017.1
20190418114230 16 98 1.6 4.8 0.00 0.00 0.00 80 1017.0
20190418113728 16 123 1.6 4.8 0.00 0.00 0.00 80 1017.0
20190418113226 16 54 1.6 11.3 0.00 0.00 0.00 80 1016.8
20190418112724 16 360 0.0 6.4 0.00 0.00 0.00 80 1016.9
20190418112222 16 121 1.6 6.4 0.00 0.00 0.00 80 1016.9
20190418111720 16 360 0.0 4.8 0.00 0.00 0.00 80 1016.8
20190418111217 16 360 0.0 4.8 0.00 0.00 0.00 80 1016.9
20190418110716 16 360 0.0 3.2 0.00 0.00 0.00 80 1016.7
20190418110213 16 202 1.6 6.4 0.00 0.00 0.00 80 1016.5
20190418105712 16 254 1.6 6.4 0.00 0.00 0.00 80 1016.5
20190418105210 16 360 0.0 1.6 0.00 0.00 0.00 80 1016.5
20190418104708 16 134 1.6 3.2 0.00 0.00 0.00 80 1016.5
20190418104206 16 161 1.6 6.4 0.00 0.00 0.00 80 1016.3
20190418103703 16 122 1.6 8.0 0.00 0.00 0.00 80 1016.3
20190418103201 16 156 1.6 9.7 0.00 0.00 0.00 80 1016.2
20190418102659 16 73 3.2 9.7 0.00 0.00 0.00 80 1016.1
20190418102157 16 128 3.2 8.0 0.00 0.00 0.00 80 1016.1
20190418101655 16 156 1.6 6.4 0.00 0.00 0.00 80 1016.2
20190418101154 16 132 1.6 8.0 0.00 0.00 0.00 80 1016.2
20190418100651 16 161 1.6 6.4 0.00 0.00 0.00 80 1016.1
20190418100149 16 161 3.2 4.8 0.00 0.00 0.00 80 1016.1
20190418095648 16 214 1.6 4.8 0.00 0.00 0.00 81 1016.0
20190418095145 16 97 1.6 4.8 0.00 0.00 0.00 81 1016.0
20190418094643 16 360 0.0 4.8 0.00 0.00 0.00 80 1015.9
20190418094142 16 170 1.6 8.0 0.00 0.00 0.00 80 1016.0
20190418093640 16 156 1.6 4.8 0.00 0.00 0.00 80 1016.1
20190418093137 16 101 1.6 6.4 0.00 0.00 0.00 80 1016.1
20190418092636 16 123 1.6 6.4 0.00 0.00 0.00 80 1015.9
20190418092133 16 360 0.0 3.2 0.00 0.00 0.00 80 1015.9
20190418091632 16 162 1.6 6.4 0.00 0.00 0.00 80 1015.9
20190418091129 16 138 1.6 8.0 0.00 0.00 0.00 80 1015.8
20190418090627 16 215 1.6 8.0 0.00 0.00 0.00 80 1015.8
20190418090125 16 132 1.6 4.8 0.00 0.00 0.00 80 1015.8
20190418085625 16 144 1.6 4.8 0.00 0.00 0.00 80 1015.8
20190418085123 16 217 1.6 6.4 0.00 0.00 0.00 80 1015.9
20190418084621 16 117 1.6 3.2 0.00 0.00 0.00 80 1015.9
20190418084119 16 111 1.6 4.8 0.00 0.00 0.00 80 1016.0
20190418083617 16 150 3.2 8.0 0.00 0.00 0.00 80 1016.0
20190418083115 16 124 1.6 6.4 0.00 0.00 0.00 80 1016.1
20190418082613 16 111 1.6 11.3 0.00 0.00 0.00 79 1016.2
20190418082111 16 360 0.0 3.2 0.00 0.00 0.00 79 1016.3
20190418081609 16 109 1.6 4.8 0.00 0.00 0.00 79 1016.2
20190418081107 16 120 1.6 6.4 0.00 0.00 0.00 79 1016.3
20190418080605 16 160 1.6 6.4 0.00 0.00 0.00 79 1016.4
20190418080103 16 133 1.6 4.8 0.00 0.00 0.00 78 1016.4
20190418075601 16 167 1.6 4.8 0.00 0.00 0.00 78 1016.4
20190418075059 16 141 1.6 3.2 0.00 0.00 0.00 79 1016.4
20190418074557 16 360 0.0 3.2 0.00 0.00 0.00 79 1016.4
20190418074055 16 360 0.0 3.2 0.00 0.00 0.00 78 1016.4
20190418073553 16 360 0.0 3.2 0.00 0.00 0.00 78 1016.4
20190418073053 16 360 0.0 3.2 0.00 0.00 0.00 78 1016.4
20190418072551 16 360 0.0 1.6 0.00 0.00 0.00 77 1016.4
20190418072049 16 360 0.0 3.2 0.00 0.00 0.00 77 1016.3
20190418071547 16 203 1.6 3.2 0.00 0.00 0.00 77 1016.4
20190418071045 16 360 0.0 3.2 0.00 0.00 0.00 77 1016.5
20190418070543 16 360 0.0 3.2 0.00 0.00 0.00 76 1016.5
20190418070041 16 360 0.0 4.8 0.00 0.00 0.00 76 1016.5
20190418065539 16 182 1.6 8.0 0.00 0.00 0.00 76 1016.4
20190418065037 17 360 0.0 4.8 0.00 0.00 0.00 75 1016.4
20190418064535 17 111 1.6 4.8 0.00 0.00 0.00 75 1016.4
20190418064033 17 146 1.6 4.8 0.00 0.00 0.00 76 1016.4
20190418063531 16 360 0.0 4.8 0.00 0.00 0.00 76 1016.6
20190418063029 16 360 0.0 0.0 0.00 0.00 0.00 75 1016.7
20190418062527 17 360 0.0 1.6 0.00 0.00 0.00 74 1016.8
20190418062025 17 360 0.0 1.6 0.00 0.00 0.00 73 1016.8
20190418061523 17 127 1.6 3.2 0.00 0.00 0.00 73 1016.8
20190418061021 17 360 0.0 1.6 0.00 0.00 0.00 73 1016.8
20190418060519 17 146 1.6 4.8 0.00 0.00 0.00 72 1016.7
20190418060017 17 360 0.0 3.2 0.00 0.00 0.00 72 1016.7
20190418055515 17 360 0.0 3.2 0.00 0.00 0.00 72 1016.7
20190418055013 17 143 1.6 6.4 0.00 0.00 0.00 72 1016.7
20190418054511 17 360 0.0 0.0 0.00 0.00 0.00 72 1016.8
20190418053457 17 360 0.0 0.0 0.00 0.00 0.00 74 1017.1
20190418052453 17 360 0.0 0.0 0.00 0.00 0.00 74 1017.2
20190418051951 17 360 0.0 0.0 0.00 0.00 0.00 73 1017.1
20190418051451 17 360 0.0 0.0 0.00 0.00 0.00 73 1017.1
20190418050949 17 360 0.0 0.0 0.00 0.00 0.00 72 1017.1
20190418050447 18 360 0.0 0.0 0.00 0.00 0.00 71 1017.1
20190418045945 17 360 0.0 0.0 0.00 0.00 0.00 71 1017.1
20190418045443 18 360 0.0 0.0 0.00 0.00 0.00 71 1017.0
20190418044941 18 360 0.0 0.0 0.00 0.00 0.00 70 1017.0
20190418044439 18 360 0.0 0.0 0.00 0.00 0.00 69 1017.0
20190418043937 18 360 0.0 0.0 0.00 0.00 0.00 69 1017.1
20190418043435 18 360 0.0 1.6 0.00 0.00 0.00 68 1017.0
20190418042933 19 360 0.0 4.8 0.00 0.00 0.00 67 1017.0
20190418042431 19 360 0.0 4.8 0.00 0.00 0.00 66 1017.0
20190418041929 19 360 0.0 3.2 0.00 0.00 0.00 67 1017.0
20190418041427 19 159 1.6 11.3 0.00 0.00 0.00 66 1016.9
20190418040925 19 163 1.6 8.0 0.00 0.00 0.00 66 1016.9
20190418040423 19 103 1.6 4.8 0.00 0.00 0.00 65 1016.9
20190418035922 19 360 0.0 4.8 0.00 0.00 0.00 66 1017.0
20190418035420 19 360 0.0 4.8 0.00 0.00 0.00 67 1017.1
20190418034917 19 360 0.0 3.2 0.00 0.00 0.00 66 1017.1
20190418034415 19 360 0.0 1.6 0.00 0.00 0.00 65 1017.2
20190418033913 19 165 1.6 6.4 0.00 0.00 0.00 65 1017.2
20190418033412 20 360 0.0 4.8 0.00 0.00 0.00 64 1017.2
20190418032909 20 95 1.6 4.8 0.00 0.00 0.00 64 1017.2
20190418032407 20 126 1.6 4.8 0.00 0.00 0.00 63 1017.1
20190418031905 20 360 0.0 1.6 0.00 0.00 0.00 62 1017.1
20190418031403 20 360 0.0 1.6 0.00 0.00 0.00 63 1017.1
20190418030901 20 360 0.0 3.2 0.00 0.00 0.00 62 1017.1
20190418030359 20 185 1.6 6.4 0.00 0.00 0.00 61 1017.1
20190418025857 20 360 0.0 4.8 0.00 0.00 0.00 61 1017.1
20190418025355 20 127 1.6 4.8 0.00 0.00 0.00 61 1017.2
20190418024853 20 125 1.6 6.4 0.00 0.00 0.00 61 1017.3
20190418024351 20 360 0.0 3.2 0.00 0.00 0.00 61 1017.3
20190418023849 20 360 0.0 3.2 0.00 0.00 0.00 61 1017.3
20190418023347 20 142 1.6 6.4 0.00 0.00 0.00 60 1017.2
20190418022845 20 142 1.6 6.4 0.00 0.00 0.00 60 1017.3
20190418022344 20 360 0.0 3.2 0.00 0.00 0.00 60 1017.4
20190418021843 20 360 0.0 4.8 0.00 0.00 0.00 61 1017.4
20190418021341 20 360 0.0 1.6 0.00 0.00 0.00 62 1017.4
20190418020839 20 360 0.0 1.6 0.00 0.00 0.00 62 1017.5
20190418020337 20 360 0.0 1.6 0.00 0.00 0.00 59 1017.5
20190418015835 20 360 0.0 3.2 0.00 0.00 0.00 60 1017.4
20190418015333 20 144 1.6 3.2 0.00 0.00 0.00 57 1017.3
20190418014831 20 360 0.0 0.0 0.00 0.00 0.00 58 1017.3
20190418014329 20 360 0.0 0.0 0.00 0.00 0.00 61 1017.3
20190418013827 19 360 0.0 3.2 0.00 0.00 0.00 62 1017.4
20190418013325 20 360 0.0 3.2 0.00 0.00 0.00 63 1017.4
20190418012823 20 360 0.0 1.6 0.00 0.00 0.00 62 1017.3
20190418012321 20 360 0.0 0.0 0.00 0.00 0.00 61 1017.3
20190418011819 20 360 0.0 3.2 0.00 0.00 0.00 61 1017.3
20190418011317 20 360 0.0 1.6 0.00 0.00 0.00 61 1017.2
20190418010815 20 360 0.0 1.6 0.00 0.00 0.00 63 1017.2
20190418010313 21 360 0.0 3.2 0.00 0.00 0.00 58 1017.1
20190418005811 20 360 0.0 0.0 0.00 0.00 0.00 62 1017.0
20190418005309 20 360 0.0 0.0 0.00 0.00 0.00 60 1017.0
20190418004807 21 360 0.0 3.2 0.00 0.00 0.00 58 1017.0
20190418004305 21 360 0.0 1.6 0.00 0.00 0.00 58 1016.8
20190418003803 20 360 0.0 0.0 0.00 0.00 0.00 64 1016.8
20190418003301 21 360 0.0 0.0 0.00 0.00 0.00 61 1016.7
20190418002759 21 360 0.0 0.0 0.00 0.00 0.00 61 1016.6
20190418002257 21 360 0.0 0.0 0.00 0.00 0.00 59 1016.6
20190418001755 21 360 0.0 0.0 0.00 0.00 0.00 60 1016.7
20190418001254 21 360 0.0 0.0 0.00 0.00 0.00 59 1016.7
20190418000751 22 360 0.0 0.0 0.00 0.00 0.00 56 1016.8
20190418000249 22 360 0.0 3.2 0.00 0.00 0.00 55 1016.8
20190417235747 22 360 0.0 1.6 0.00 0.00 0.00 53 1016.8
20190417235245 22 360 0.0 0.0 0.00 0.00 0.00 52 1016.7
20190417234743 23 360 0.0 1.6 0.00 0.00 0.00 52 1016.6
20190417234241 23 360 0.0 1.6 0.00 0.00 0.00 51 1016.7
20190417233739 23 360 0.0 3.2 0.00 0.00 0.00 49 1016.7
20190417233237 23 360 0.0 1.6 0.00 0.00 0.00 50 1016.7
20190417232735 23 360 0.0 3.2 0.00 0.00 0.00 51 1016.5
20190417232233 23 360 0.0 0.0 0.00 0.00 0.00 50 1016.5
20190417231731 23 360 0.0 0.0 0.00 0.00 0.00 54 1016.5
20190417231229 23 360 0.0 1.6 0.00 0.00 0.00 53 1016.5
20190417230727 23 360 0.0 1.6 0.00 0.00 0.00 50 1016.4
20190417230225 24 360 0.0 3.2 0.00 0.00 0.00 48 1016.5
20190417225723 24 360 0.0 3.2 0.00 0.00 0.00 46 1016.4
20190417225221 25 169 1.6 3.2 0.00 0.00 0.00 42 1016.4
20190417224719 25 360 0.0 3.2 0.00 0.00 0.00 42 1016.4
20190417224217 25 360 0.0 1.6 0.00 0.00 0.00 41 1016.3
20190417223715 25 360 0.0 1.6 0.00 0.00 0.00 43 1016.3
20190417223213 25 360 0.0 3.2 0.00 0.00 0.00 40 1016.3
20190417222711 25 360 0.0 1.6 0.00 0.00 0.00 40 1016.3
20190417222209 25 360 0.0 1.6 0.00 0.00 0.00 41 1016.3
20190417221707 25 360 0.0 0.0 0.00 0.00 0.00 44 1016.3
20190417221205 25 360 0.0 3.2 0.00 0.00 0.00 42 1016.3
20190417220703 25 360 0.0 3.2 0.00 0.00 0.00 43 1016.3
20190417220201 26 360 0.0 3.2 0.00 0.00 0.00 44 1016.3
20190417215659 26 178 1.6 4.8 0.00 0.00 0.00 38 1016.4
20190417215157 26 153 1.6 4.8 0.00 0.00 0.00 40 1016.4
20190417214655 26 360 0.0 3.2 0.00 0.00 0.00 44 1016.5
20190417214153 26 360 0.0 1.6 0.00 0.00 0.00 40 1016.5
20190417213651 26 360 0.0 3.2 0.00 0.00 0.00 38 1016.4
20190417213149 26 134 1.6 4.8 0.00 0.00 0.00 40 1016.4
20190417212647 26 360 0.0 0.0 0.00 0.00 0.00 42 1016.3
20190417212145 26 360 0.0 0.0 0.00 0.00 0.00 40 1016.3
20190417211643 26 360 0.0 0.0 0.00 0.00 0.00 38 1016.4
20190417211141 26 360 0.0 0.0 0.00 0.00 0.00 39 1016.5
20190417210639 26 360 0.0 0.0 0.00 0.00 0.00 38 1016.5
20190417210136 26 132 1.6 3.2 0.00 0.00 0.00 37 1016.5
20190417205635 26 360 0.0 3.2 0.00 0.00 0.00 42 1016.5
20190417205133 26 132 1.6 4.8 0.00 0.00 0.00 36 1016.6
20190417204631 26 151 3.2 6.4 0.00 0.00 0.00 38 1016.6
20190417204129 26 123 1.6 6.4 0.00 0.00 0.00 37 1016.6
20190417203626 26 360 0.0 3.2 0.00 0.00 0.00 37 1016.6
20190417203124 26 156 1.6 4.8 0.00 0.00 0.00 39 1016.7
20190417202623 26 146 1.6 8.0 0.00 0.00 0.00 36 1016.8
20190417201911 27 135 3.2 11.3 0.00 0.00 0.00 38 1016.8
20190417201409 27 343 1.6 4.8 0.00 0.00 0.00 35 1016.9
20190417200907 27 346 1.6 4.8 0.00 0.00 0.00 39 1016.9
20190417200404 27 296 3.2 9.7 0.00 0.00 0.00 35 1017.1
20190417195903 27 124 1.6 4.8 0.00 0.00 0.00 34 1017.2
20190417195400 27 360 0.0 0.0 0.00 0.00 0.00 36 1017.2
20190417194858 27 360 0.0 1.6 0.00 0.00 0.00 38 1017.3
20190417194357 27 360 0.0 0.0 0.00 0.00 0.00 34 1017.4
20190417193854 27 265 1.6 4.8 0.00 0.00 0.00 36 1017.4
20190417193352 27 267 1.6 4.8 0.00 0.00 0.00 37 1017.5
20190417192851 27 307 1.6 4.8 0.00 0.00 0.00 36 1017.6
20190417192349 27 360 0.0 3.2 0.00 0.00 0.00 37 1017.6
20190417191847 27 321 3.2 11.3 0.00 0.00 0.00 38 1017.6
20190417191344 27 321 1.6 6.4 0.00 0.00 0.00 34 1017.6
20190417190842 27 29 1.6 4.8 0.00 0.00 0.00 36 1017.7
20190417190340 27 302 3.2 4.8 0.00 0.00 0.00 36 1017.7
20190417185838 27 302 1.6 4.8 0.00 0.00 0.00 32 1017.8
20190417185336 27 339 1.6 4.8 0.00 0.00 0.00 37 1017.9
20190417184835 27 346 1.6 3.2 0.00 0.00 0.00 40 1017.9
20190417184332 27 360 1.6 3.2 0.00 0.00 0.00 40 1017.9
20190417183830 27 360 1.6 4.8 0.00 0.00 0.00 37 1017.9
20190417183328 27 360 0.0 3.2 0.00 0.00 0.00 37 1018.0
20190417182826 27 360 0.0 1.6 0.00 0.00 0.00 38 1018.1
20190417182324 27 136 1.6 3.2 0.00 0.00 0.00 40 1018.1
20190417181822 26 137 3.2 6.4 0.00 0.00 0.00 37 1018.2
20190417181321 27 126 3.2 6.4 0.00 0.00 0.00 39 1018.3
20190417180818 27 119 1.6 6.4 0.00 0.00 0.00 43 1018.4
20190417180316 27 181 3.2 9.7 0.00 0.00 0.00 39 1018.5
20190417175814 27 179 3.2 8.0 0.00 0.00 0.00 40 1018.6
20190417175312 27 111 1.6 6.4 0.00 0.00 0.00 40 1018.6
20190417174811 27 142 1.6 4.8 0.00 0.00 0.00 42 1018.7
20190417174309 26 116 3.2 11.3 0.00 0.00 0.00 42 1018.7
20190417173807 26 98 1.6 4.8 0.00 0.00 0.00 42 1018.7
20190417173304 26 319 1.6 4.8 0.00 0.00 0.00 42 1018.8
20190417172803 26 153 1.6 3.2 0.00 0.00 0.00 42 1018.9
20190417172300 26 13 1.6 3.2 0.00 0.00 0.00 42 1018.9
20190417171758 25 61 1.6 4.8 0.00 0.00 0.00 43 1019.0
20190417171256 26 119 1.6 4.8 0.00 0.00 0.00 43 1019.1
20190417170754 26 119 1.6 4.8 0.00 0.00 0.00 41 1019.1
20190417170252 26 121 1.6 4.8 0.00 0.00 0.00 44 1019.2
20190417165750 26 360 0.0 0.0 0.00 0.00 0.00 46 1019.3